W4XWA Weather Reports


time (UTC)temp
F
wind
direction
speed
knots
gust
knots
rain 1hr
in
rain 24hr
in
rain mn
in
humidity
%
barometer
mb
20260906113620 74 201 0.0 0.0 0.00 0.05 0.05 99 1012.7
20260906113120 74 216 0.0 0.0 0.00 0.05 0.05 99 1012.8
20260906112620 74 215 0.0 0.0 0.00 0.05 0.05 99 1012.7
20260906112117 74 215 0.0 0.0 0.00 0.05 0.05 99 1012.5
20260906111616 74 214 0.0 0.0 0.00 0.05 0.05 99 1012.6
20260906111111 73 210 0.0 0.0 0.00 0.05 0.05 99 1012.7
20260906110611 73 214 0.0 0.0 0.00 0.05 0.05 99 1012.5
20260906110106 73 220 0.0 0.0 0.00 0.05 0.05 99 1012.6
20260906105600 74 216 0.0 0.0 0.00 0.05 0.05 99 1012.6
20260906105057 74 206 0.0 0.0 0.00 0.05 0.05 99 1012.7
20260906104555 74 211 0.0 0.0 0.00 0.05 0.05 99 1012.7
20260906104050 74 198 0.0 0.0 0.00 0.05 0.05 99 1012.7
20260906103548 74 206 0.0 0.0 0.07 0.05 0.05 99 1013.1
20260906103044 74 213 0.0 0.0 0.07 0.05 0.05 99 1013.1
20260906102543 74 210 0.0 0.0 0.05 0.04 0.04 99 1013.1
20260906102039 74 211 0.9 0.9 0.05 0.04 0.04 99 1013.2
20260906101538 74 215 0.0 0.0 0.00 0.03 0.03 99 1013.2
20260906101033 75 206 0.9 0.9 0.07 0.03 0.03 99 1013.1
20260906100529 75 212 0.0 0.0 0.07 0.03 0.03 99 1013.2
20260906100029 75 212 0.0 0.0 0.05 0.02 0.02 99 1013.0
20260906095524 75 213 0.0 0.0 0.05 0.02 0.02 99 1013.2
20260906095020 76 212 0.0 0.0 0.07 0.01 0.01 97 1013.2
20260906094518 77 212 0.0 0.0 0.07 0.01 0.01 96 1012.7
20260906094014 77 237 0.0 0.0 0.00 0.00 0.00 96 1012.6
20260906093510 77 209 0.0 0.0 0.00 0.00 0.00 96 1012.7
20260906093010 77 218 0.0 0.0 0.00 0.00 0.00 96 1012.5
20260906092505 78 219 0.0 0.0 0.00 0.00 0.00 95 1012.0
20260906092000 78 204 0.0 0.0 0.00 0.00 0.00 94 1012.2
20260906091456 78 209 0.0 0.0 0.00 0.00 0.00 93 1012.3
20260906090953 78 205 0.0 0.0 0.00 0.00 0.00 92 1012.2
20260906090447 78 209 0.0 0.0 0.00 0.00 0.00 92 1012.2
20260906085947 78 216 0.0 0.0 0.00 0.00 0.00 91 1012.2
20260906085446 78 213 0.0 0.0 0.00 0.00 0.00 91 1011.9
20260906084945 78 209 0.0 0.0 0.00 0.00 0.00 91 1011.9
20260906084441 79 214 0.0 0.0 0.00 0.00 0.00 91 1012.1
20260906083939 79 212 0.0 0.0 0.00 0.00 0.00 92 1012.2
20260906083436 79 209 0.0 0.0 0.00 0.00 0.00 93 1012.2
20260906082934 79 209 0.0 0.0 0.00 0.00 0.00 94 1012.3
20260906082430 79 213 0.0 0.0 0.00 0.00 0.00 95 1012.2
20260906081925 78 219 0.0 0.0 0.00 0.00 0.00 96 1012.4
20260906081421 79 213 0.0 0.0 0.00 0.00 0.00 96 1012.4
20260906080917 78 207 0.0 0.0 0.00 0.00 0.00 96 1012.5
20260906080414 78 211 0.0 0.0 0.00 0.00 0.00 96 1012.7
20260906075913 78 210 0.0 0.0 0.00 0.00 0.00 96 1012.6
20260906075408 78 211 0.0 0.0 0.00 0.00 0.00 96 1012.7
20260906074903 78 213 0.0 0.0 0.00 0.00 0.00 96 1012.8
20260906074403 78 211 0.0 0.0 0.00 0.00 0.00 96 1012.6
20260906073901 78 204 0.0 0.0 0.00 0.00 0.00 97 1012.5
20260906073356 78 209 0.0 0.0 0.00 0.00 0.00 97 1012.7
20260906072853 78 216 0.0 0.0 0.00 0.00 0.00 97 1012.5
20260906072348 77 209 0.0 0.0 0.00 0.00 0.00 97 1012.1
20260906071844 77 209 0.0 0.0 0.00 0.00 0.00 97 1012.1
20260906071339 77 209 0.0 0.0 0.00 0.00 0.00 97 1012.3
20260906070836 77 209 0.0 0.0 0.00 0.00 0.00 97 1012.3
20260906070331 77 210 0.0 0.0 0.00 0.00 0.00 97 1012.4
20260906065826 78 209 0.0 0.0 0.00 0.00 0.00 97 1012.5
20260906065321 77 217 0.0 0.0 0.00 0.00 0.00 97 1012.3
20260906064817 77 211 0.0 0.0 0.00 0.00 0.00 97 1012.6
20260906064313 77 204 0.0 0.0 0.00 0.00 0.00 97 1012.5
20260906063813 77 212 0.0 0.0 0.00 0.00 0.00 97 1012.5
20260906063308 77 212 0.0 0.0 0.00 0.00 0.00 97 1012.6
20260906062803 77 212 0.0 0.0 0.00 0.00 0.00 97 1012.4
20260906062305 77 213 0.0 0.0 0.00 0.00 0.00 97 1012.8
20260906061758 77 213 0.0 0.0 0.00 0.00 0.00 97 1013.0
20260906061254 78 213 0.0 0.0 0.00 0.00 0.00 96 1012.9
20260906060749 78 213 0.0 0.0 0.00 0.00 0.00 96 1012.9
20260906060247 78 213 0.0 0.0 0.00 0.00 0.00 96 1013.1
20260906055742 78 215 0.0 0.0 0.00 0.00 0.00 95 1013.2
20260906055237 78 215 0.0 0.0 0.00 0.00 0.00 96 1012.9
20260906054733 78 215 0.0 0.0 0.00 0.00 0.00 96 1012.9
20260906054228 78 215 0.0 0.0 0.00 0.00 0.00 96 1013.0
20260906053724 78 207 0.0 0.0 0.00 0.00 0.00 96 1012.8
20260906053220 78 212 0.0 0.0 0.00 0.00 0.00 96 1013.1
20260906052715 78 214 0.0 0.0 0.00 0.00 0.00 96 1013.0
20260906052211 78 214 0.0 0.0 0.00 0.00 0.00 95 1013.0
20260906051708 78 213 0.0 0.0 0.00 0.00 0.00 95 1013.1
20260906051207 78 214 0.0 0.0 0.00 0.00 0.00 95 1013.0
20260906050703 78 214 0.0 0.0 0.00 0.00 0.00 95 1013.1
20260906050157 78 209 0.0 0.0 0.00 0.00 0.00 95 1013.1
20260906045656 78 209 0.0 0.0 0.00 0.00 0.00 95 1013.1
20260906045151 78 211 0.0 0.0 0.00 0.00 0.00 95 1013.3
20260906044647 78 208 0.0 0.0 0.00 0.00 0.00 95 1013.1
20260906044142 78 214 0.0 0.0 0.00 0.00 0.00 94 1013.3
20260906043638 79 214 0.0 0.0 0.00 0.00 0.00 94 1013.4
20260906043134 79 209 0.0 0.0 0.00 0.00 0.00 94 1013.3
20260906042633 79 202 0.0 0.0 0.00 0.00 0.00 93 1013.2
20260906042127 79 210 0.0 0.0 0.00 0.00 0.00 93 1013.2
20260906041623 79 208 0.0 0.0 0.00 0.00 0.00 93 1013.2
20260906041118 78 201 0.0 0.0 0.00 0.00 0.00 94 1013.1
20260906040614 78 210 0.0 0.0 0.00 0.00 0.00 94 1013.2
20260906040109 78 211 0.0 0.0 0.00 0.00 0.00 93 1013.1
20260906035604 78 211 0.0 0.0 0.00 0.00 0.00 94 1013.1
20260906035100 79 206 0.0 0.0 0.00 0.00 0.00 94 1013.2
20260906034600 79 205 0.0 0.0 0.00 0.00 0.00 93 1013.2
20260906034054 79 205 0.0 0.0 0.00 0.00 0.00 93 1013.1
20260906033550 79 212 0.0 0.0 0.00 0.00 0.00 93 1013.1
20260906033045 79 217 0.0 0.0 0.00 0.00 0.00 92 1013.1
20260906032542 80 218 0.0 0.0 0.00 0.00 0.00 92 1013.1
20260906032036 79 218 0.0 0.0 0.00 0.00 0.00 92 1012.9
20260906031532 79 215 0.0 0.0 0.00 0.00 0.00 92 1013.1
20260906031027 79 213 0.0 0.0 0.00 0.00 0.00 92 1012.9
20260906030526 79 205 0.0 0.0 0.00 0.00 0.00 92 1013.1
20260906030026 79 212 0.0 0.0 0.00 0.00 0.00 92 1012.9
20260906025526 80 213 0.0 0.0 0.00 0.00 0.00 92 1012.9
20260906025024 80 213 0.0 0.0 0.00 0.00 0.00 91 1013.1
20260906024520 80 205 0.0 0.0 0.00 0.00 0.00 91 1013.0
20260906024020 80 207 0.0 0.0 0.00 0.00 0.00 91 1012.9
20260906023516 80 213 0.0 0.0 0.00 0.00 0.00 90 1012.6
20260906023011 80 213 0.0 0.0 0.00 0.00 0.00 90 1012.8
20260906022506 80 217 0.0 0.0 0.00 0.00 0.00 90 1013.0
20260906022001 80 209 0.0 0.0 0.00 0.00 0.00 90 1012.7
20260906021455 80 210 0.0 0.0 0.00 0.00 0.00 90 1012.6
20260906020950 81 210 0.0 0.0 0.00 0.00 0.00 89 1012.8
20260906020445 81 210 0.0 0.0 0.00 0.00 0.00 89 1012.7
20260906015944 81 210 0.0 0.0 0.00 0.00 0.00 88 1012.8
20260906015444 81 210 0.0 0.0 0.00 0.00 0.00 88 1012.7
20260906014943 81 207 0.0 0.0 0.00 0.00 0.00 88 1012.6
20260906014438 82 209 0.0 0.0 0.00 0.00 0.00 87 1012.2
20260906013934 82 214 0.0 0.0 0.00 0.00 0.00 88 1012.3
20260906013429 82 211 0.0 0.0 0.00 0.00 0.00 87 1012.1
20260906012925 82 209 0.0 0.0 0.00 0.00 0.00 87 1012.0
20260906012425 82 214 0.0 0.0 0.00 0.00 0.00 86 1011.7
20260906011924 82 213 0.0 0.0 0.00 0.00 0.00 86 1011.8
20260906011420 82 211 0.0 0.0 0.00 0.00 0.00 86 1011.9
20260906010915 83 204 0.0 0.0 0.00 0.00 0.00 86 1011.7
20260906010411 83 211 0.0 0.0 0.00 0.00 0.00 85 1011.6
20260906005907 83 210 0.0 0.0 0.00 0.00 0.00 85 1011.6
20260906005406 83 209 0.0 0.0 0.00 0.00 0.00 85 1011.4
20260906004904 84 209 0.0 0.0 0.00 0.00 0.00 84 1011.5
20260906004359 84 205 0.0 0.0 0.00 0.00 0.00 84 1011.6
20260906003854 84 209 0.0 0.0 0.00 0.00 0.00 84 1011.6
20260906003349 84 214 0.0 0.0 0.00 0.00 0.00 83 1011.6
20260906002845 85 209 0.0 0.0 0.00 0.00 0.00 83 1011.3
20260906002344 85 194 0.9 0.9 0.00 0.00 0.00 83 1011.5
20260906001840 85 205 0.0 0.9 0.00 0.00 0.00 82 1011.4
20260906001336 85 211 0.0 0.0 0.00 0.00 0.00 82 1011.5
20260906000831 86 211 0.0 0.0 0.00 0.00 0.00 82 1011.3
20260906000326 86 222 0.0 0.0 0.00 0.00 0.00 81 1011.4
20260905235825 86 209 0.0 0.0 0.00 0.00 0.00 81 1011.4
20260905235320 86 182 0.0 0.0 0.00 0.00 0.00 80 1011.5
20260905234815 87 212 0.0 0.0 0.00 0.00 0.00 80 1011.4
20260905234311 87 211 0.0 0.0 0.00 0.00 0.00 80 1011.6
20260905233811 87 199 0.0 0.0 0.00 0.00 0.00 79 1011.7
20260905233306 87 206 0.0 0.0 0.00 0.00 0.00 78 1011.8
20260905232805 88 209 0.0 0.0 0.00 0.00 0.00 77 1011.5
20260905232301 88 92 2.6 2.6 0.00 0.00 0.00 76 1011.5
20260905231757 89 209 0.0 0.0 0.00 0.00 0.00 75 1011.4
20260905231252 89 207 0.0 0.0 0.00 0.00 0.00 74 1011.4
20260905230748 90 210 0.9 0.9 0.00 0.00 0.00 73 1011.3
20260905230246 90 191 0.9 1.7 0.00 0.00 0.00 72 1011.3
20260905225745 91 177 0.0 0.0 0.00 0.00 0.00 71 1011.3
20260905225241 91 210 0.0 0.0 0.00 0.00 0.00 70 1011.4
20260905224739 91 209 0.0 0.0 0.00 0.00 0.00 70 1011.4
20260905224236 92 213 0.0 0.0 0.00 0.00 0.00 69 1011.2
20260905223731 92 214 0.0 0.0 0.00 0.00 0.00 69 1011.1
20260905223228 92 212 0.0 0.0 0.00 0.00 0.00 67 1011.1
20260905222724 93 160 2.6 4.3 0.00 0.00 0.00 66 1011.0
20260905222222 93 216 0.0 0.0 0.00 0.00 0.00 64 1011.1
20260905221719 93 213 0.0 0.0 0.00 0.00 0.00 62 1010.7
20260905221216 93 205 0.0 0.0 0.00 0.00 0.00 61 1011.1
20260905220711 94 211 0.0 0.0 0.00 0.00 0.00 58 1011.0
20260905220207 95 212 0.0 0.0 0.00 0.00 0.00 53 1010.9
20260905215706 95 207 0.0 0.0 0.00 0.00 0.00 49 1011.0
20260905215202 95 204 0.0 0.0 0.00 0.00 0.00 52 1010.8
20260905214658 96 182 1.7 1.7 0.00 0.00 0.00 51 1010.9
20260905214153 96 207 0.0 0.0 0.00 0.00 0.00 50 1010.8
20260905213648 96 215 0.0 0.0 0.00 0.00 0.00 52 1010.9
20260905213144 96 215 0.0 0.9 0.00 0.00 0.00 49 1011.0
20260905212639 97 209 0.0 0.0 0.00 0.00 0.00 50 1011.0
20260905212138 97 209 0.9 0.9 0.00 0.00 0.00 48 1010.9
20260905211633 97 202 0.0 0.0 0.00 0.00 0.00 48 1011.2
20260905211128 98 219 0.0 0.0 0.00 0.00 0.00 48 1011.0
20260905210625 99 209 0.0 0.0 0.00 0.00 0.00 47 1011.1
20260905210119 99 214 0.0 0.0 0.00 0.00 0.00 49 1011.0
20260905205619 98 226 0.0 0.0 0.00 0.00 0.00 47 1011.2
20260905205118 97 215 0.0 0.0 0.00 0.00 0.00 49 1011.4
20260905204618 97 215 0.0 0.0 0.00 0.00 0.00 50 1011.3
20260905204114 98 199 0.0 0.0 0.00 0.00 0.00 49 1011.5
20260905203613 101 198 0.0 0.0 0.00 0.00 0.00 47 1011.4
20260905203109 99 211 0.9 0.9 0.00 0.00 0.00 47 1011.5
20260905202604 99 222 0.0 0.0 0.00 0.00 0.00 49 1011.5
20260905202059 98 212 0.0 0.0 0.00 0.00 0.00 49 1011.7
20260905201555 98 227 0.0 0.0 0.00 0.00 0.00 48 1011.5
20260905201054 98 217 0.0 0.0 0.00 0.00 0.00 50 1011.7
20260905200550 97 209 0.0 0.0 0.00 0.00 0.00 51 1011.7
20260905200044 99 244 0.0 0.9 0.00 0.00 0.00 50 1011.7
20260905195538 98 161 1.7 2.6 0.00 0.00 0.00 50 1011.7
20260905195034 98 230 0.0 0.0 0.00 0.00 0.00 49 1011.7
20260905194533 97 198 0.0 0.9 0.00 0.00 0.00 51 1011.7
20260905194033 97 207 0.0 0.0 0.00 0.00 0.00 52 1011.6
20260905193527 96 207 0.0 0.0 0.00 0.00 0.00 51 1011.7
20260905193023 96 204 0.0 0.0 0.00 0.00 0.00 53 1012.0
20260905192518 95 212 0.0 0.0 0.00 0.00 0.00 53 1012.1
20260905192015 95 211 0.0 0.0 0.00 0.00 0.00 54 1012.2
20260905191513 97 164 0.0 0.9 0.00 0.00 0.00 52 1012.1
20260905191012 97 244 0.0 0.0 0.00 0.00 0.00 50 1012.4
20260905190510 97 209 0.0 0.9 0.00 0.00 0.00 50 1012.5
20260905190010 96 214 0.0 0.0 0.00 0.00 0.00 53 1012.4
20260905185504 96 167 2.6 4.3 0.00 0.00 0.00 51 1012.7
20260905185003 96 199 0.0 0.0 0.00 0.00 0.00 55 1012.6
20260905184459 96 180 0.0 0.0 0.00 0.00 0.00 53 1012.8
20260905183957 96 214 0.0 0.0 0.00 0.00 0.00 54 1012.8
20260905183457 96 242 0.9 1.7 0.00 0.00 0.00 53 1012.7
20260905182951 96 199 0.0 0.0 0.00 0.00 0.00 55 1013.0
20260905182451 96 219 0.0 0.0 0.00 0.00 0.00 58 1013.0
20260905181947 95 210 0.0 0.0 0.00 0.00 0.00 59 1013.1
20260905181447 96 217 0.0 0.0 0.00 0.00 0.00 56 1013.2
20260905180946 96 205 0.9 1.7 0.00 0.00 0.00 56 1013.4
20260905180441 97 181 1.7 2.6 0.00 0.00 0.00 54 1013.5
20260905175936 96 208 0.0 0.0 0.00 0.00 0.00 55 1013.5
20260905175435 97 214 0.9 0.9 0.00 0.00 0.00 56 1013.4
20260905174931 96 218 0.9 0.9 0.00 0.00 0.00 56 1013.7
20260905174426 97 173 1.7 1.7 0.00 0.00 0.00 55 1013.6
20260905173922 97 207 0.0 0.0 0.00 0.00 0.00 54 1013.8
20260905173419 97 229 0.0 0.9 0.00 0.00 0.00 55 1013.8
20260905172919 97 201 1.7 1.7 0.00 0.00 0.00 55 1013.9
20260905172416 96 210 0.0 0.0 0.00 0.00 0.00 55 1014.0
20260905171912 95 208 0.0 0.0 0.00 0.00 0.00 56 1013.8
20260905171409 96 217 0.0 0.0 0.00 0.00 0.00 57 1014.0
20260905170905 96 197 0.0 1.7 0.00 0.00 0.00 56 1014.2
20260905170401 96 12 0.9 0.9 0.00 0.00 0.00 55 1014.2
20260905165900 95 179 2.6 2.6 0.00 0.00 0.00 57 1014.2
20260905165355 94 203 0.9 0.9 0.00 0.00 0.00 62 1014.3
20260905164850 94 141 1.7 1.7 0.00 0.00 0.00 61 1014.5
20260905164345 94 155 1.7 2.6 0.00 0.00 0.00 57 1014.5
20260905163840 95 205 0.9 1.7 0.00 0.00 0.00 59 1014.4
20260905163337 95 209 0.0 0.0 0.00 0.00 0.00 60 1014.5
20260905162833 94 213 0.0 0.0 0.00 0.00 0.00 60 1014.8
20260905162332 95 181 0.0 0.9 0.00 0.00 0.00 59 1014.6
20260905161827 94 202 0.0 0.0 0.00 0.00 0.00 63 1014.9
20260905161326 94 215 0.0 1.7 0.00 0.00 0.00 61 1014.6
20260905160825 94 196 0.0 0.0 0.00 0.00 0.00 62 1014.5
20260905160319 94 215 0.0 0.0 0.00 0.00 0.00 61 1014.9
20260905155814 94 191 0.0 0.0 0.00 0.00 0.00 62 1014.6
20260905155313 94 159 0.0 0.0 0.00 0.00 0.00 62 1014.8
20260905154807 94 201 0.0 0.0 0.00 0.00 0.00 64 1014.6
20260905154303 93 222 0.0 0.0 0.00 0.00 0.00 64 1014.4
20260905153758 92 162 0.0 0.0 0.00 0.00 0.00 64 1014.5
20260905153254 93 215 0.0 0.9 0.00 0.00 0.00 67 1014.6
20260905152749 93 214 0.0 0.0 0.00 0.00 0.00 66 1014.3
20260905152248 93 202 0.9 0.9 0.00 0.00 0.00 67 1014.6
20260905151748 92 196 0.0 0.0 0.00 0.00 0.00 67 1014.8
20260905151244 91 203 0.0 0.0 0.00 0.00 0.00 68 1014.8
20260905150744 91 192 0.9 0.9 0.00 0.00 0.00 68 1014.6
20260905150243 91 198 0.0 0.0 0.00 0.00 0.00 69 1014.5
20260905145741 91 210 0.0 0.0 0.00 0.00 0.00 70 1014.8
20260905145236 90 213 0.0 0.0 0.00 0.00 0.00 72 1014.6
20260905144735 89 238 1.7 1.7 0.00 0.00 0.00 72 1014.9
20260905144230 89 214 0.0 0.0 0.00 0.00 0.00 73 1014.6
20260905143729 88 220 0.0 0.0 0.00 0.00 0.00 74 1014.8
20260905143229 89 206 0.0 0.0 0.00 0.00 0.00 72 1015.0
20260905142727 88 179 0.0 0.0 0.00 0.00 0.00 77 1015.0
20260905142222 87 213 0.0 0.0 0.00 0.00 0.00 76 1015.0
20260905141718 87 209 0.0 0.0 0.00 0.00 0.00 75 1014.8
20260905141214 87 197 0.0 0.0 0.00 0.00 0.00 77 1014.9
20260905140708 87 209 0.0 0.0 0.00 0.00 0.00 79 1014.9
20260905140203 86 199 0.0 0.0 0.00 0.00 0.00 79 1014.9
20260905135657 86 209 0.0 0.0 0.00 0.00 0.00 79 1015.1
20260905135154 86 199 0.0 0.0 0.00 0.00 0.00 80 1014.8
20260905134653 85 212 0.0 0.0 0.00 0.00 0.00 82 1015.0
20260905134152 85 238 0.0 0.0 0.00 0.00 0.00 81 1015.1
20260905133648 85 180 0.0 0.0 0.00 0.00 0.00 82 1015.0
20260905133148 84 209 0.0 0.0 0.00 0.00 0.00 83 1015.2
20260905132647 83 207 0.0 0.0 0.00 0.00 0.00 85 1014.6
20260905132142 83 207 0.0 0.0 0.00 0.00 0.00 85 1014.9
20260905131638 82 202 0.0 0.0 0.00 0.00 0.00 90 1015.1
20260905131138 80 202 0.0 0.0 0.00 0.00 0.00 92 1015.1
20260905130633 79 194 0.0 0.0 0.00 0.00 0.00 94 1015.0
20260905130133 78 207 0.0 0.0 0.00 0.00 0.00 96 1015.3
20260905125632 78 208 0.0 0.0 0.00 0.00 0.00 97 1015.0
20260905125128 76 205 0.0 0.0 0.00 0.00 0.00 99 1015.1
20260905124625 76 205 0.0 0.0 0.00 0.00 0.00 99 1015.0
20260905124120 75 207 0.0 0.0 0.00 0.00 0.00 99 1015.2
20260905123615 75 211 0.0 0.0 0.00 0.00 0.00 99 1015.2
20260905123113 74 211 0.0 0.0 0.00 0.00 0.00 99 1015.1
20260905122613 74 211 0.0 0.0 0.00 0.00 0.00 99 1015.1
20260905122113 74 211 0.0 0.0 0.00 0.00 0.00 99 1014.9
20260905121607 73 211 0.0 0.0 0.00 0.00 0.00 99 1014.9
20260905121103 73 206 0.0 0.0 0.00 0.00 0.00 99 1014.8
20260905120602 73 207 0.0 0.0 0.00 0.00 0.00 99 1015.1
20260905120057 73 207 0.0 0.0 0.00 0.00 0.00 99 1015.1
20260905115556 73 209 0.0 0.0 0.00 0.00 0.00 99 1014.8
20260905115051 73 209 0.0 0.0 0.00 0.00 0.00 99 1014.9
20260905114550 73 211 0.0 0.0 0.00 0.00 0.00 99 1014.8
20260905114049 73 211 0.0 0.0 0.00 0.00 0.00 99 1014.8